PETITSAT (55130 NORAD) Tracking and Keplerian Element Data

This shows tracking and keplerian element data for the satellite.

Feedback or suggestion? Click here.




ElementValue
Catalog55130
NamePETITSAT
Epoch Orbit1356
Epoch Day85.16475641
Epoch Year2023
RAAN12.5925
Inclination51.6342
Eccentricity0.0011059
Argument of Perigee162.2568
Mean Anonmoly197.8824
Mean Motion15.84110389
Decay Rate0.00593258
L11 55130U 98067UX 23085.16475641 .00593258 00000+0 24039-2 0 9997
L22 55130 51.6342 12.5925 0011059 162.2568 197.8824 15.84110389 13561



Live tracking and technical data element details for PETITSAT (NORAD 55130). PETITSAT can be tracked NOW for your location showing map with azimuth and elevation plus other details from your city location.







IsCatalogInMostPopularTable: catalog: 55130, numindb: 9
Update: records affected: 1



GetName: 55130 PETITSAT

Hit Count: updated at: Mon, 27 Mar 2023 06:36:14 GMT